• In Hungary
  • List of Countries
  • For 7 days
  • Water Temperature
  • Satellite Maps
  • Weather Map
  • News
  • Weather Widgets
  • user-avatar
    Login

    Hourly Weather Belluno

    Today, 20 January, Saturday

    Time Temperature Precipitation Wind Pressure Humidity
    00:00 -2°C° 0 mm 2 mps 725 mmHg 67%
    01:00 -2°C° 0 mm 2 mps 724 mmHg 65%
    02:00 -2°C° 0 mm 2 mps 725 mmHg 65%
    03:00 -1°C° 0 mm 2 mps 725 mmHg 65%
    04:00 -1°C° 0 mm 2 mps 725 mmHg 66%
    05:00 -2°C° 0 mm 2 mps 725 mmHg 67%
    06:00 -2°C° 0 mm 2 mps 725 mmHg 68%
    07:00 -3°C° 0 mm 2 mps 725 mmHg 69%
    08:00 -1°C° 0 mm 2 mps 725 mmHg 68%
    09:00 +1°C° 0 mm 2 mps 725 mmHg 67%
    10:00 +2°C° 0 mm 2 mps 725 mmHg 66%
    11:00 +4°C° 0 mm 1 mps 724 mmHg 63%
    12:00 +5°C° 0 mm 1 mps 724 mmHg 60%
    13:00 +7°C° 0 mm 1 mps 723 mmHg 57%
    14:00 +6°C° 0 mm 1 mps 723 mmHg 63%
    15:00 +5°C° 0 mm 1 mps 722 mmHg 69%
    16:00 +4°C° 0 mm 1 mps 722 mmHg 74%
    17:00 +4°C° 0 mm 1 mps 721 mmHg 76%
    18:00 +3°C° 0 mm 1 mps 721 mmHg 79%
    19:00 +2°C° 0 mm 1 mps 720 mmHg 81%
    20:00 +2°C° 0.2 mm 1 mps 720 mmHg 82%
    21:00 +2°C° 0.2 mm 1 mps 719 mmHg 83%
    22:00 +2°C° 0.2 mm 1 mps 719 mmHg 84%
    23:00 +2°C° 0.3 mm 1 mps 718 mmHg 83%

    Tomorrow, 21 January, Sunday

    Time Temperature Precipitation Wind Pressure Humidity
    00:00 +1°C° 0.3 mm 2 mps 718 mmHg 83%
    01:00 +1°C° 0.3 mm 2 mps 718 mmHg 83%
    02:00 +1°C° 0.2 mm 2 mps 718 mmHg 82%
    03:00 +1°C° 0.2 mm 2 mps 718 mmHg 82%
    04:00 +1°C° 0.2 mm 2 mps 718 mmHg 81%
    05:00 +2°C° 0.2 mm 2 mps 718 mmHg 81%
    06:00 +2°C° 0.2 mm 2 mps 718 mmHg 82%
    07:00 +2°C° 0.2 mm 2 mps 718 mmHg 82%
    08:00 +3°C° 0.3 mm 2 mps 718 mmHg 81%
    09:00 +4°C° 0.3 mm 1 mps 719 mmHg 81%
    10:00 +5°C° 0.3 mm 1 mps 719 mmHg 80%
    11:00 +6°C° 0.1 mm 1 mps 720 mmHg 77%
    12:00 +7°C° 0.1 mm 1 mps 720 mmHg 73%
    13:00 +8°C° 0.1 mm 1 mps 721 mmHg 70%
    14:00 +6°C° 0 mm 2 mps 721 mmHg 72%
    15:00 +6°C° 0 mm 2 mps 722 mmHg 73%
    16:00 +5°C° 0 mm 2 mps 722 mmHg 74%
    17:00 +4°C° 0 mm 2 mps 723 mmHg 75%
    18:00 +3°C° 0 mm 2 mps 724 mmHg 75%
    19:00 +2°C° 0 mm 2 mps 725 mmHg 75%
    20:00 +1°C° 0 mm 2 mps 725 mmHg 75%
    21:00 -1°C° 0 mm 2 mps 726 mmHg 74%
    22:00 -1°C° 0 mm 2 mps 726 mmHg 73%
    23:00 -1°C° 0 mm 2 mps 726 mmHg 73%

    Day after tomorrow, 22 January, Monday

    Time Temperature Precipitation Wind Pressure Humidity
    00:00 -1°C° 0 mm 2 mps 726 mmHg 72%
    01:00 -1°C° 0 mm 2 mps 726 mmHg 71%
    02:00 -1°C° 0.1 mm 2 mps 726 mmHg 71%
    03:00 +1°C° 0.1 mm 2 mps 725 mmHg 72%
    04:00 +2°C° 0.1 mm 1 mps 725 mmHg 72%
    05:00 +2°C° 0.3 mm 1 mps 725 mmHg 75%
    06:00 +2°C° 0.3 mm 1 mps 725 mmHg 77%
    07:00 +2°C° 0.3 mm 1 mps 724 mmHg 79%
    08:00 +3°C° 0.5 mm 1 mps 725 mmHg 79%
    09:00 +3°C° 0.5 mm 1 mps 725 mmHg 79%
    10:00 +4°C° 0.5 mm 1 mps 725 mmHg 78%
    11:00 +5°C° 0.2 mm 1 mps 725 mmHg 77%
    12:00 +7°C° 0.2 mm 1 mps 725 mmHg 75%
    13:00 +8°C° 0.2 mm 1 mps 725 mmHg 74%
    14:00 +8°C° 0 mm 1 mps 725 mmHg 76%
    15:00 +7°C° 0 mm 1 mps 725 mmHg 79%
    16:00 +7°C° 0 mm 1 mps 725 mmHg 82%
    17:00 +7°C° 0 mm 1 mps 726 mmHg 82%
    18:00 +6°C° 0 mm 1 mps 726 mmHg 83%
    19:00 +5°C° 0 mm 1 mps 726 mmHg 84%
    20:00 +5°C° 0 mm 1 mps 726 mmHg 84%
    21:00 +4°C° 0 mm 1 mps 726 mmHg 84%
    22:00 +4°C° 0 mm 1 mps 727 mmHg 83%
    23:00 +4°C° 0 mm 1 mps 727 mmHg 83%

    23 January, Tuesday

    Time Temperature Precipitation Wind Pressure Humidity
    00:00 +5°C° 0 mm 1 mps 727 mmHg 82%
    01:00 +5°C° 0 mm 1 mps 727 mmHg 81%
    02:00 +5°C° 0 mm 1 mps 727 mmHg 81%
    03:00 +5°C° 0 mm 1 mps 727 mmHg 81%
    04:00 +5°C° 0 mm 1 mps 728 mmHg 81%
    05:00 +5°C° 0 mm 1 mps 728 mmHg 80%
    06:00 +5°C° 0 mm 1 mps 728 mmHg 80%
    07:00 +5°C° 0 mm 1 mps 729 mmHg 80%
    08:00 +6°C° 0 mm 1 mps 729 mmHg 79%
    09:00 +7°C° 0 mm 1 mps 730 mmHg 79%
    10:00 +8°C° 0 mm 1 mps 730 mmHg 78%
    11:00 +9°C° 0 mm 1 mps 731 mmHg 78%
    12:00 +10°C° 0 mm 1 mps 731 mmHg 77%
    13:00 +11°C° 0 mm 1 mps 731 mmHg 76%
    14:00 +10°C° 0 mm 1 mps 732 mmHg 79%
    15:00 +10°C° 0 mm 1 mps 732 mmHg 82%
    16:00 +9°C° 0 mm 1 mps 732 mmHg 85%
    17:00 +8°C° 0 mm 1 mps 733 mmHg 85%
    18:00 +7°C° 0 mm 1 mps 734 mmHg 85%
    19:00 +6°C° 0 mm 1 mps 734 mmHg 86%
    20:00 +6°C° 0 mm 1 mps 735 mmHg 85%
    21:00 +6°C° 0 mm 1 mps 735 mmHg 83%
    22:00 +5°C° 0 mm 1 mps 736 mmHg 82%
    23:00 +5°C° 0 mm 1 mps 736 mmHg 82%

    24 January, Wednesday

    Time Temperature Precipitation Wind Pressure Humidity
    00:00 +5°C° 0 mm 1 mps 736 mmHg 81%
    01:00 +5°C° 0 mm 1 mps 737 mmHg 81%
    02:00 +4°C° 0 mm 1 mps 737 mmHg 81%
    03:00 +4°C° 0 mm 1 mps 737 mmHg 81%
    04:00 +3°C° 0 mm 2 mps 737 mmHg 81%
    05:00 +4°C° 0 mm 1 mps 737 mmHg 80%
    06:00 +4°C° 0 mm 1 mps 737 mmHg 79%
    07:00 +4°C° 0 mm 1 mps 737 mmHg 78%
    08:00 +5°C° 0 mm 1 mps 737 mmHg 76%
    09:00 +7°C° 0 mm 1 mps 737 mmHg 74%
    10:00 +8°C° 0 mm 1 mps 737 mmHg 72%
    11:00 +9°C° 0 mm 1 mps 737 mmHg 72%
    12:00 +10°C° 0 mm 1 mps 737 mmHg 73%
    13:00 +11°C° 0 mm 1 mps 737 mmHg 74%
    14:00 +10°C° 0 mm 1 mps 736 mmHg 76%
    15:00 +9°C° 0 mm 0 mps 736 mmHg 79%
    16:00 +8°C° 0 mm 0 mps 736 mmHg 81%
    17:00 +8°C° 0 mm 1 mps 736 mmHg 81%
    18:00 +7°C° 0 mm 1 mps 736 mmHg 81%
    19:00 +6°C° 0 mm 1 mps 737 mmHg 81%
    20:00 +5°C° 0 mm 1 mps 737 mmHg 81%
    21:00 +5°C° 0 mm 1 mps 737 mmHg 80%
    22:00 +5°C° 0 mm 1 mps 737 mmHg 79%
    23:00 +5°C° 0 mm 1 mps 737 mmHg 79%

    25 January, Thursday

    Time Temperature Precipitation Wind Pressure Humidity
    00:00 +4°C° 0 mm 1 mps 736 mmHg 79%
    01:00 +4°C° 0 mm 1 mps 736 mmHg 78%
    02:00 +4°C° 0 mm 1 mps 736 mmHg 78%
    03:00 +4°C° 0 mm 1 mps 736 mmHg 78%
    04:00 +4°C° 0 mm 1 mps 735 mmHg 78%
    05:00 +4°C° 0 mm 1 mps 735 mmHg 78%
    06:00 +4°C° 0 mm 1 mps 735 mmHg 78%
    07:00 +4°C° 0 mm 1 mps 735 mmHg 78%
    08:00 +5°C° 0 mm 1 mps 734 mmHg 77%
    09:00 +6°C° 0 mm 1 mps 734 mmHg 75%
    10:00 +6°C° 0 mm 0 mps 734 mmHg 74%
    11:00 +8°C° 0 mm 1 mps 734 mmHg 75%
    12:00 +9°C° 0 mm 1 mps 733 mmHg 76%
    13:00 +10°C° 0 mm 1 mps 733 mmHg 77%
    14:00 +9°C° 0 mm 1 mps 732 mmHg 80%
    15:00 +9°C° 0 mm 1 mps 732 mmHg 83%
    16:00 +8°C° 0 mm 1 mps 731 mmHg 86%
    17:00 +8°C° 0 mm 1 mps 731 mmHg 88%
    18:00 +7°C° 0 mm 1 mps 731 mmHg 90%
    19:00 +5°C° 0 mm 0 mps 731 mmHg 92%
    20:00 +5°C° 0 mm 1 mps 731 mmHg 91%
    21:00 +5°C° 0 mm 1 mps 731 mmHg 91%
    22:00 +5°C° 0 mm 1 mps 731 mmHg 91%
    23:00 +5°C° 0 mm 1 mps 731 mmHg 91%
    Show more